Flag for U.S.A. Weather past 2 weeks in Santa Clarita, California, U.S.A.

Now
75 °F

Sunny.


Feels Like: 77 °F
Forecast: 53 / 81 °F
Wind: 7 mph from South

Location: Van Nuys Airport

Current Time: Oct 20, 2014 at 6:39:21 PM

Latest Report: Oct 20, 2014 at 5:51 PM


Visibility: 10 mi

Pressure: 29.83 "Hg

Humidity: 58%

Dew point: 59 °F

Location of Santa ClaritaLocation

Historic Weather in Santa Clarita — Graph

°F

Santa Clarita temperature yesterday

Maximum temperature yesterday: 80 °F (at 2:51 PM)
Minimum temperature yesterday: 56 °F (at 6:51 AM)
Average temperature yesterday: 67 °F

Past Weeks' High & Low Weather Summary

 TemperatureHumidityPressure
High96 °F (Oct 5, 4:51 PM)97% (Oct 13, 8:51 AM)30.02 "Hg (Oct 13, 8:51 AM)
Low56 °F (Oct 17, 5:51 AM)8% (Oct 5, 4:51 PM)29.77 "Hg (Oct 8, 3:51 PM)
Average71 °F59%29.90 "Hg
* Reported Oct 5 4:51 PM — Oct 20 4:51 PM, Santa Clarita, Weather by CustomWeather, © 2014

Note: Actual official high and low records may vary slightly from our data, if they occured in-between our weather recording intervals... More about our weather records

Advertising

Santa Clarita weather history for previous 24 hours

 ConditionsComfort  
Time TempWeatherWind HumidityBarometerVisibility
4:51 PM
Oct 20
78 °FSunny.8 mph50%29.83 "Hg10 mi
3:51 PM80 °FSunny.9 mph47%29.83 "Hg10 mi
2:51 PM80 °FSunny.No wind44%29.85 "Hg10 mi
1:51 PM77 °FScattered clouds.3 mph50%29.86 "Hg8 mi
12:51 PM74 °FScattered clouds.No wind60%29.89 "Hg8 mi
11:58 AM70 °FSunny.No wind68%29.95 "Hg10 mi
11:00 AM68 °FPartly sunny.6 mph70%29.96 "Hg9 mi
9:58 AM67 °FPartly sunny.6 mph73%29.95 "Hg6 mi
8:51 AM63 °FLow clouds.3 mph84%29.93 "Hg4 mi
7:51 AM63 °FFog.3 mph87%29.90 "Hg3 mi
6:51 AM63 °FFog.3 mph87%29.89 "Hg5 mi
5:51 AM63 °FFog.No wind87%29.88 "Hg4 mi
4:51 AM62 °FFog.No wind93%29.87 "Hg3 mi
3:51 AM63 °FFog.No wind90%29.86 "Hg4 mi
2:51 AM64 °FFog.3 mph87%29.87 "Hg5 mi
1:51 AM64 °FFog.No wind87%29.88 "Hg6 mi
12:51 AM64 °FLow clouds.3 mph90%29.87 "Hg7 mi
11:51 PM
Oct 19
64 °FClear.3 mph87%29.87 "Hg10 mi
10:51 PM66 °FClear.5 mph78%29.88 "Hg10 mi
9:51 PM67 °FClear.No wind76%29.86 "Hg10 mi
7:51 PM71 °FClear.No wind61%29.84 "Hg10 mi
6:51 PM71 °FSunny.No wind66%29.83 "Hg10 mi
Weather by CustomWeather, © 2014

See weather overviewHow to use our weather pages